Location: Chervonnoye
(48.6000°N, 34.4000°E)
Time: 20:39:46
(UTC+00:00)

Cosmos 540 Rocket - Pass Details

Date: 23 November 2020
Orbit: 740 x 754 km, 74.1° (Epoch: 27 January)

Event Time Altitude Azimuth Distance (km) Brightness Sun altitude
Rises 14:42:33 0° 205° (SSW) 3,177 7.5 -7.9°
Reaches altitude 10° 14:44:54 10° 206° (SSW) 2,255 6.7 -8.3°
Maximum altitude 14:50:01 78° 293° (WNW) 765 3.6 -9.1°
Drops below altitude 10° 14:55:09 10° 21° (NNE) 2,264 5.6 -9.9°
Enters shadow 14:57:11 - 22° (NNE) 3,058 6.2 -10.2°
